[[{"header":{"parameterUnit":"m.s-1","parameterCategory":1,"la1":30.2991,"la2":30.254,"lo1":-89.0895,"lo2":-89.0444,"dy":0.0017,"dx":0.0017,"nx":28,"ny":28,"refTime":"2023-10-01T21:00:00:Z","depth":0,"parameterNumber":2,"parameterNumberName":"U-component_of_WINDS"},"data":[0,0,0,0,0,0,0,0,0,0,0,0,0,0,0,0,0,0,0,0,0,0,0,0,0,0,0,0,0,0,0,0,0,0,0,0,0,0,0,0,0,0,0,0,0,0,0,0,0,0,0,0,0,0,0,0,0,0,-4.5897,-4.5897,0,-4.5918,-4.5918,-4.5918,-4.5776,-4.5772,-4.5768,-4.5764,-4.5784,-4.5788,-4.5792,0,0,0,0,0,0,0,0,0,0,0,0,0,-4.5731,-4.5735,-4.5897,-4.5897,-4.5897,-4.5918,-4.5918,-4.5918,-4.5776,-4.5771,-4.5766,-4.5762,-4.5782,-4.5787,-4.5792,0,0,0,0,0,0,0,0,0,0,0,0,0,-4.5783,-4.5736,-4.5897,-4.5829,-4.5823,-4.5918,-4.5918,-4.5918,-4.5777,-4.5771,-4.5765,-4.576,-4.5781,-4.5787,-4.5793,-4.5953,0,0,-4.5813,-4.5815,0,0,0,0,0,0,0,0,-4.578,-4.5789,-4.5839,-4.5834,-4.5827,-4.5838,-4.5867,-4.593,-4.5779,-4.5795,-4.5764,-4.5757,-4.5806,-4.581,-4.5827,-4.5954,-4.5955,-4.5813,-4.5817,-4.582,-4.5822,0,0,0,0,0,0,0,-4.5777,-4.5787,-4.5905,-4.5839,-4.5833,-4.5797,-4.5797,-4.5878,-4.5834,-4.5793,-4.5782,-4.5787,-4.5802,-4.5822,-4.5827,-4.5955,-4.5813,-4.5819,-4.5823,-4.5825,-4.6213,-4.6219,0,0,0,0,0,0,-4.5782,-4.5785,-4.5904,-4.5905,-4.5788,-4.5805,-4.5805,-4.5841,-4.5833,-4.5826,-4.5792,-4.578,-4.5814,-4.582,-4.5827,-4.6012,-4.582,-4.5826,-4.583,-4.6207,-4.6214,-4.6221,0,0,0,0,0,0,-4.5779,-4.5794,-4.5903,-4.5843,-4.5854,-4.5814,-4.5855,-4.5844,-4.5863,-4.5832,-4.5823,-4.582,-4.5809,-4.5818,-4.5923,-4.6011,-4.5829,-4.5835,-4.6199,-4.6209,-4.6218,-4.6386,0,0,0,0,0,0,-4.5775,-4.5794,-4.5855,-4.5845,-4.5858,-4.6,-4.586,-4.5849,-4.5875,-4.586,-4.5856,-4.585,-4.5805,-4.5914,-4.5929,-4.6017,-4.584,-4.6191,-4.6203,-4.6215,-4.6372,-4.64,-4.6424,0,0,0,0,0,-4.577,-4.5901,-4.5859,-4.5874,-4.5933,-4.6005,-4.6012,-4.5958,-4.5883,-4.5943,-4.5923,-4.585,-4.6,-4.5926,-4.5942,-4.6033,-4.6185,-4.62,-4.6214,-4.636,-4.6394,-4.6423,0,0,0,0,0,0,-4.5922,-4.5899,-4.5851,-4.5984,-4.5998,-4.5981,-4.6055,-4.5996,-4.6031,-4.6015,-4.5947,-4.5947,-4.6063,-4.6058,-4.5977,-4.6186,-4.6079,-4.6097,-4.6185,-4.6217,-4.6242,-4.624,-4.5845,0,0,0,0,0,-4.5971,-4.6033,-4.6009,-4.6128,-4.6137,-4.6096,-4.6125,-4.6083,-4.6094,-4.6099,-4.6086,-4.6099,-4.6149,-4.6183,-4.6227,-4.6372,-4.6368,-4.6442,-4.6468,-4.6489,-4.6505,-4.658,-4.6612,-4.6269,-4.6269,-4.6269,0,0,-4.6073,-4.6068,-4.6111,-4.6158,-4.6164,-4.6228,-4.6101,-4.6175,-4.6221,-4.6109,-4.6207,-4.6199,-4.6209,-4.6334,-4.6388,-4.6334,-4.6599,-4.6508,-4.6525,-4.6529,-4.6598,-4.663,-4.6659,-4.6279,-4.6277,-4.6276,0,0,-4.629,-4.6294,-4.6392,-4.6401,-4.6411,-4.6383,-4.6407,-4.64,-4.639,-4.6487,-4.6405,-4.6459,-4.6546,-4.6556,-4.6573,-4.6796,-4.6729,-4.6812,-4.6946,-4.702,-4.7047,-4.707,-4.7148,-4.7176,-4.6829,-4.6829,-4.6829,0,-4.6415,-4.6509,-4.6451,-4.6529,-4.6552,-4.6455,-4.6554,-4.6565,-4.6589,-4.6607,-4.6546,-4.6653,-4.6653,-4.6778,-4.6833,-4.685,-4.6874,-4.6811,-4.7048,-4.7071,-4.7092,-4.7165,-4.7194,-4.6839,-4.6838,-4.6837,-4.6836,0,-4.6661,-4.6727,-4.6805,-4.6832,-4.6863,-4.6952,-4.6906,-4.6946,-4.6901,-4.6879,-4.6979,-4.6976,-4.7017,-4.7044,-4.7001,-4.7164,-4.7129,-4.706,-4.6949,-4.7135,-4.7202,-4.723,-4.6853,-4.6849,-4.6846,-4.6844,0,0,-4.6973,-4.6966,-4.6996,-4.7006,-4.7011,-4.706,-4.7145,-4.7185,-4.7219,-4.724,-4.7308,-4.7385,-4.732,-4.7339,-4.7296,-4.7361,-4.7536,-4.7283,-4.7282,-4.7328,-4.7712,-4.7763,-4.7797,-4.7493,-4.7498,-4.7502,-4.7711,0,-4.7183,-4.7326,-4.7277,-4.7422,-4.7481,-4.7391,-4.7464,-4.7475,-4.7457,-4.7504,-4.7484,-4.7539,-4.745,-4.7461,-4.7521,-4.7502,-4.7611,-4.7486,-4.7553,-4.7556,-4.7551,-4.7832,-4.7886,-4.8083,-4.7737,-4.7741,-4.7745,0,-4.7448,-4.7479,-4.7631,-4.7624,-4.7647,-4.7714,-4.7747,-4.7794,-4.7804,-4.7786,-4.7809,-4.7752,-4.7833,-4.7726,-4.7836,-4.7752,-4.7777,-4.7772,-4.7778,-4.778,-4.766,-4.784,-4.8145,-4.8174,-4.7786,-4.7783,-4.778,0,-4.7657,-4.7738,-4.7838,-4.785,-4.7846,-4.7895,-4.7895,-4.7899,-4.7927,-4.7956,-4.7973,-4.8012,-4.8032,-4.8063,-4.8019,-4.7945,-4.8135,-4.8024,-4.8121,-4.8122,-4.8163,-4.816,-4.8474,-4.8184,-4.8183,-4.8183,-4.8182,0,-4.7896,-4.7992,-4.7932,-4.7994,-4.8098,-4.8041,-4.8145,-4.8136,-4.814,-4.8198,-4.8123,-4.8178,-4.8117,-4.8167,-4.8133,-4.8228,-4.8238,-4.8225,-4.8215,-4.8231,-4.8232,-4.8244,-4.8229,-4.819,-4.8189,-4.8187,-4.8186,0,-4.8147,-4.8111,-4.8215,-4.8203,-4.8202,-4.8279,-4.8268,-4.8325,-4.8302,-4.8376,-4.839,-4.8354,-4.8409,-4.8368,-4.8422,-4.8399,-4.8524,-4.8496,-4.8521,-4.8512,-4.8611,-4.8602,-4.8942,-4.8983,-4.8668,-4.8671,-4.8674,0,-4.8301,-4.8372,-4.8368,-4.8402,-4.8407,-4.8462,-4.849,-4.8436,-4.8468,-4.8485,-4.8539,-4.8588,-4.8623,-4.8715,-4.8693,-4.8734,-4.8704,-4.8821,-4.871,-4.8724,-4.8703,-4.8699,-4.8705,-4.8842,-4.8846,-4.8849,-4.8852,0,-4.8577,-4.8555,-4.8599,-4.8636,-4.8672,-4.8699,-4.8719,-4.8751,-4.8696,-4.8736,-4.8791,-4.8819,-4.8874,-4.8923,-4.8956,-4.8956,-4.8895,-4.8887,-4.8911,-4.8927,-4.8939,-4.8932,-4.858,-4.8879,-4.8876,-4.8874,-4.8873,-4.8872,-4.8782,-4.8841,-4.8847,-4.8898,-4.8908,-4.8929,-4.8981,-4.8965,-4.901,-4.9051,-4.9017,-4.9083,-4.909,-4.9129,-4.9136,-4.9186,-4.9138,-4.9174,-4.9183,-4.9192,-4.9205,-4.8933,-4.9193,-4.9192,-4.9191,-4.919,-4.919,0,-4.9052,-4.9052,-4.9099,-4.9131,-4.917,-4.9111,-4.913,-4.9167,-4.9226,-4.9239,-4.9276,-4.9339,-4.9386,-4.9369,-4.941,-4.9454,-4.9427,-4.9466,-4.9461,-4.9462,-4.9247,-4.922,-4.9487,-4.9487,-4.9487,-4.9487,-4.9487,-4.9487,-4.9197,-4.9293,-4.9273,-4.9373,-4.9372,-4.9436,-4.9452,-4.9471,-4.9481,-4.9555,-4.9593,-4.9582,-4.9583,-4.9623,-4.9664,-4.9657,-4.9675,-4.9725,-4.9708,-4.9507,-4.9477,-4.9449,-4.9424,-4.973,-4.973,-4.9919,-4.9921,-4.9922]},{"header":{"parameterUnit":"m.s-1","parameterCategory":1,"la1":30.2991,"la2":30.254,"lo1":-89.0895,"lo2":-89.0444,"dy":0.0017,"dx":0.0017,"nx":28,"ny":28,"refTime":"2023-10-01T21:00:00:Z","depth":0,"parameterNumber":3,"parameterNumberName":"V-component_of_WINDS"},"data":[0,0,0,0,0,0,0,0,0,0,0,0,0,0,0,0,0,0,0,0,0,0,0,0,0,0,0,0,0,0,0,0,0,0,0,0,0,0,0,0,0,0,0,0,0,0,0,0,0,0,0,0,0,0,0,0,0,0,1.7126,1.7126,0,1.7107,1.7107,1.7106,1.7075,1.7074,1.7074,1.7073,1.7053,1.7053,1.7053,0,0,0,0,0,0,0,0,0,0,0,0,0,1.7134,1.7134,1.7126,1.7126,1.7125,1.7107,1.7107,1.7106,1.7075,1.7074,1.7074,1.7073,1.7053,1.7053,1.7053,0,0,0,0,0,0,0,0,0,0,0,0,0,1.7125,1.7134,1.7126,1.7107,1.7106,1.7107,1.7107,1.7106,1.7075,1.7074,1.7073,1.7073,1.7053,1.7053,1.7053,1.707,0,0,1.7053,1.7053,0,0,0,0,0,0,0,0,1.7125,1.7124,1.711,1.7109,1.7107,1.7092,1.7102,1.7094,1.7075,1.7087,1.7073,1.7072,1.7066,1.7065,1.7064,1.7069,1.7068,1.7053,1.7053,1.7052,1.7052,0,0,0,0,0,0,0,1.7126,1.7125,1.7118,1.711,1.7108,1.71,1.7098,1.71,1.7082,1.7086,1.7083,1.7082,1.7065,1.7064,1.7063,1.7068,1.7053,1.7052,1.7052,1.7052,1.7087,1.7088,0,0,0,0,0,0,1.7129,1.7126,1.7119,1.7118,1.7114,1.7101,1.7098,1.7098,1.7082,1.7078,1.7082,1.708,1.7064,1.7063,1.7062,1.7081,1.7052,1.7052,1.7052,1.7086,1.7088,1.7089,0,0,0,0,0,0,1.713,1.7129,1.712,1.7121,1.7119,1.7101,1.7101,1.7098,1.7096,1.7079,1.7075,1.7084,1.7063,1.7062,1.7068,1.708,1.7052,1.7052,1.7085,1.7087,1.7088,1.712,0,0,0,0,0,0,1.713,1.7129,1.7136,1.7121,1.7119,1.7126,1.7102,1.7098,1.7096,1.7093,1.708,1.7077,1.7063,1.7069,1.7068,1.708,1.7052,1.7084,1.7086,1.7088,1.7118,1.7123,1.7126,0,0,0,0,0,1.713,1.7145,1.7136,1.7136,1.7127,1.7127,1.7126,1.711,1.7098,1.7104,1.7093,1.7077,1.7079,1.707,1.7069,1.708,1.7083,1.7085,1.7087,1.7116,1.7122,1.7126,0,0,0,0,0,0,1.716,1.7143,1.7133,1.7143,1.7137,1.7122,1.7129,1.7116,1.7113,1.711,1.709,1.7087,1.7096,1.7089,1.7079,1.7097,1.7079,1.7081,1.7101,1.7106,1.711,1.7111,1.7052,0,0,0,0,0,1.7168,1.717,1.7155,1.7166,1.7163,1.7147,1.7146,1.7135,1.7127,1.7124,1.7114,1.7107,1.7106,1.7106,1.7104,1.7117,1.7114,1.7125,1.7129,1.7133,1.7135,1.7141,1.7146,1.7095,1.7095,1.7095,0,0,1.7184,1.7175,1.7177,1.7171,1.7165,1.7168,1.7145,1.7148,1.7149,1.7125,1.713,1.7123,1.7114,1.7124,1.7128,1.7118,1.7148,1.7136,1.7139,1.7138,1.7144,1.7149,1.7153,1.7097,1.7097,1.7096,0,0,1.7215,1.7208,1.7217,1.7211,1.7203,1.7192,1.7194,1.7181,1.7175,1.7181,1.7162,1.7164,1.7163,1.7158,1.7155,1.7185,1.717,1.7185,1.7207,1.7214,1.7218,1.7221,1.7231,1.7236,1.7187,1.7187,1.7187,0,1.7236,1.7239,1.7222,1.7227,1.7225,1.7204,1.7212,1.7208,1.7199,1.7198,1.7188,1.7187,1.7179,1.7188,1.7195,1.7194,1.7196,1.7186,1.7218,1.7222,1.7225,1.7234,1.7238,1.7189,1.7189,1.7189,1.7189,0,1.7265,1.7267,1.7275,1.7268,1.7267,1.7273,1.7258,1.7259,1.7248,1.7239,1.7245,1.7236,1.7232,1.7233,1.7222,1.7241,1.7235,1.7222,1.7203,1.7232,1.724,1.7244,1.7192,1.7191,1.719,1.719,0,0,1.7312,1.7296,1.7299,1.7296,1.7286,1.7287,1.7293,1.729,1.7291,1.7287,1.7291,1.7292,1.728,1.7277,1.7265,1.7271,1.7296,1.7257,1.7257,1.7264,1.7316,1.7325,1.7329,1.7287,1.7287,1.7288,1.7316,0,1.7339,1.7348,1.7335,1.7347,1.7349,1.733,1.7335,1.7329,1.7321,1.7322,1.7313,1.7313,1.7298,1.7296,1.7302,1.7292,1.7306,1.729,1.729,1.729,1.7292,1.7334,1.7343,1.737,1.732,1.732,1.7321,0,1.7372,1.7369,1.7382,1.7372,1.7372,1.7377,1.7374,1.7375,1.7368,1.7362,1.7359,1.7346,1.7351,1.7335,1.7341,1.7331,1.7331,1.7326,1.7327,1.7325,1.7306,1.7333,1.7378,1.7382,1.7326,1.7325,1.7325,0,1.7404,1.7404,1.7412,1.741,1.7398,1.7402,1.7397,1.739,1.7389,1.7386,1.7386,1.7384,1.7382,1.7381,1.7368,1.7357,1.7376,1.7358,1.7371,1.7371,1.7374,1.7374,1.742,1.7376,1.7376,1.7376,1.7376,0,1.7436,1.7444,1.7426,1.7431,1.744,1.7424,1.7434,1.7427,1.7421,1.7424,1.7408,1.7411,1.7394,1.7395,1.7385,1.7392,1.7392,1.7387,1.7384,1.7387,1.7388,1.7386,1.7383,1.7377,1.7377,1.7377,1.7377,0,1.7473,1.7461,1.7468,1.7457,1.7454,1.7462,1.7452,1.7456,1.7447,1.7452,1.7452,1.7438,1.7439,1.7426,1.7424,1.7418,1.7429,1.7423,1.7431,1.7429,1.7442,1.7441,1.7487,1.7493,1.7447,1.7447,1.7447,0,1.7493,1.7499,1.7489,1.749,1.7486,1.7488,1.7488,1.7474,1.7474,1.7468,1.7472,1.7472,1.7471,1.7474,1.7464,1.7462,1.7456,1.7472,1.7455,1.7459,1.7455,1.7455,1.7455,1.7475,1.7476,1.7476,1.7477,0,1.753,1.7525,1.7525,1.7523,1.7523,1.7521,1.7518,1.752,1.7505,1.7506,1.7507,1.7506,1.7505,1.7505,1.7502,1.7497,1.7484,1.7483,1.7485,1.7489,1.7493,1.749,1.744,1.7481,1.7481,1.748,1.748,1.748,1.7559,1.7564,1.7557,1.7558,1.7555,1.7553,1.7556,1.7548,1.7549,1.7547,1.7539,1.7542,1.7536,1.7531,1.7527,1.7529,1.7521,1.7525,1.7526,1.7527,1.7529,1.7494,1.7529,1.7529,1.7529,1.7529,1.7528,0,1.7595,1.759,1.7591,1.7588,1.7589,1.7578,1.7574,1.7576,1.7578,1.7574,1.7574,1.7576,1.7576,1.7567,1.7566,1.7569,1.7563,1.7569,1.7568,1.7567,1.7537,1.7534,1.7574,1.7574,1.7574,1.7574,1.7574,1.7574,1.7613,1.7621,1.7615,1.762,1.7616,1.7618,1.7617,1.7615,1.7612,1.7615,1.7615,1.7609,1.7603,1.7602,1.7602,1.7599,1.76,1.7607,1.7603,1.7574,1.7569,1.7565,1.7563,1.7608,1.7608,1.7633,1.7633,1.7633]}]]